Location: Unspecified
(45.4615°N, 74.0512°W)
Time: 08:22:07
(UTC-05:00)

Okean 3 - Visible Passes

Search period start: 14 December 2017 00:00
Search period end: 24 December 2017 00:00
Orbit: 577 x 602 km, 82.5° (Epoch: 13 December)

Date Brightness Start Highest point End Pass type
(mag) Time Alt. Az. Time Alt. Az. Time Alt. Az.
14 Dec 6.0 17:36:57 10° WSW 17:40:08 21° WNW 17:43:21 10° NNW visible
15 Dec 6.3 17:46:04 10° WSW 17:48:28 15° WNW 17:50:52 10° NNW visible
16 Dec 6.6 17:56:15 10° WNW 17:56:50 10° WNW 17:57:24 10° NW visible
20 Dec 5.9 16:48:31 10° WSW 16:51:48 22° WNW 16:55:07 10° NNW visible
21 Dec 6.2 16:57:33 10° WSW 17:00:07 16° WNW 17:02:42 10° NNW visible
22 Dec 6.4 17:07:21 10° W 17:08:29 11° WNW 17:09:37 10° NW visible
